GSAT0104 (GALILEO-FM4)

Last updated on Sun May 05 2024 00:02:27 GMT+0000 (Coordinated Universal Time)

1 38858U 12055B 24124.21481743 .00000083 00000+0 00000+0 0 9997 2 38858 55.3937 122.9215 0002132 289.6851 70.3132 1.64591986 71895

Satellite not in orbit

GSAT0104 (GALILEO-FM4)